Showing default

COSMOS 535, 6270

Orbit data source: Space-Track

COSMOS 535, 6270 is a payload satellite owned by OKB-10 (CIS) in LEO that was launched on Wed, 01 Nov 1972 UTC via a KOSMOS 11K65M launch vehicle from the Plesetsk Missile And Space Complex (PKMTR). Payload-class satellites include a variety of spacecraft equipped with specific instruments for various scientific and technological missions. These include communications satellites like Starlink; space stations such as the ISS; scientific satellites like the Hubble; Earth observation satellites from companies like Planet Labs, Umbra, and HawkEye 360; GPS; miniature CubeSats for education and research; and military/defense satellites.

Loading next visibility...
Identifier
6270, 1972-087H
Orbit
LEO
Country
Flag of CISCIS
Related business
Manufacturer
OKB-10
Mission
Spacecraft
Bus & Motor
STRELA-1 11F625, Unknown motor
Mass
60 kg wet, 60 kg dry
Launch date (UTC)
1972-11-01 (54 years ago)
Launch vehicle
KOSMOS 11K65M
Launch site
Plesetsk Missile And Space Complex (PKMTR)
Object type
Payload
Rocket body
Debris
Shape & HBR
Unknown
Radar Cross Section
Medium (>0.1 m² and <1 m²)

Expand to show TLE details & history
Last TLE update: 2 days ago

TLE from 2 days ago
0 COSMOS 535
1  6270U 72087H   26171.37368976 -.00000015  00000-0  42363-5 0  9995
2  6270  74.0346 247.9736 0054302  16.0462  54.6001 12.59353789465432
Epoch: 2026-06-20T08:58Z
TLE epoch observation values (Epoch: 2026-06-20T08:58:06.795Z)
Latitude
65.58101°
Longitude
-116.31366°
Altitude
1,412.18 km
Speed
7.172 km/s
True Right ascension
19h 07m 12s
True Declination
65° 27' 44"
Sunlit
Object was in daylight at epoch
Visualization orbit readout
Latitude
Unknown
Longitude
Unknown
Altitude
Unknown
Speed
Unknown
Apparent Right ascension
Unknown
Apparent Declination
Unknown
Sunlit
N/A
Visualization observer readout
Local Sidereal Time
00:29:10
Azimuth
Unknown
Elevation
Unknown
Doppler factor
Unknown
Orbital elements
Apogee altitude
1,465.801 km
Perigee altitude
1,381.073 km
Semi-major axis
7,801.574 km
Eccentricity
0.00543
Inclination
74.0346°
RAAN
247.9736°
Arg. of periapsis
16.0462°
True anomaly
55.10931°
Mean anomaly
54.6001°
Eccentric anomaly
54.85451°
Mean motion
3.1497 °/min
Orbital period
114.3 mins
BSTAR
0.0000042363
Loading maneuver chart data...
Computing Atmospheric mass density...
Loading historical data...
Loading historical data...
Loading historical data...
Loading historical data...
Loading historical data...
Loading historical data...
Loading historical data...

Documentation

Showing up to 5 results
|